| time (UTC) | temp C | wind direction | speed KPH | gust KPH | rain 1hr cm | rain 24hr cm | rain mn cm | humidity % | barometer mb |
| 20260507211143 | 10 | 41 | 0.0 | 0.0 | 0.00 | 0.00 | 0.00 | 76 | 1014.1 |
| 20260507210654 | 10 | 41 | 0.0 | 0.0 | 0.00 | 0.00 | 0.00 | 75 | 1014.1 |
| 20260507210159 | 10 | 41 | 0.0 | 0.0 | 0.00 | 0.00 | 0.00 | 75 | 1014.1 |
| 20260507205655 | 10 | 360 | 0.0 | 0.0 | 0.00 | 0.00 | 0.00 | 75 | 1014.0 |
| 20260507205144 | 10 | 41 | 0.0 | 0.0 | 0.00 | 0.00 | 0.00 | 75 | 1014.0 |
| 20260507204653 | 10 | 41 | 0.0 | 0.0 | 0.00 | 0.00 | 0.00 | 75 | 1014.0 |
| 20260507204143 | 10 | 43 | 0.0 | 0.0 | 0.00 | 0.00 | 0.00 | 74 | 1013.9 |
| 20260507203648 | 10 | 41 | 0.0 | 0.0 | 0.00 | 0.00 | 0.00 | 74 | 1013.9 |
| 20260507203143 | 10 | 41 | 0.0 | 0.0 | 0.00 | 0.00 | 0.00 | 74 | 1013.9 |
| 20260507202647 | 10 | 41 | 0.0 | 0.0 | 0.00 | 0.00 | 0.00 | 74 | 1013.9 |
| 20260507201649 | 10 | 41 | 0.0 | 0.0 | 0.00 | 0.00 | 0.00 | 74 | 1013.9 |
| 20260507201157 | 10 | 41 | 0.0 | 0.0 | 0.00 | 0.00 | 0.00 | 74 | 1013.9 |
| 20260507200700 | 10 | 41 | 0.0 | 0.0 | 0.00 | 0.00 | 0.00 | 74 | 1013.9 |
| 20260507200159 | 10 | 41 | 0.0 | 0.0 | 0.00 | 0.00 | 0.00 | 74 | 1013.9 |
| 20260507195642 | 10 | 41 | 0.0 | 0.0 | 0.00 | 0.00 | 0.00 | 73 | 1013.5 |
| 20260507195148 | 10 | 40 | 0.0 | 0.0 | 0.00 | 0.00 | 0.00 | 73 | 1013.5 |
| 20260507194656 | 10 | 40 | 0.0 | 0.0 | 0.00 | 0.00 | 0.00 | 72 | 1013.5 |
| 20260507194145 | 10 | 38 | 0.0 | 0.0 | 0.00 | 0.00 | 0.00 | 72 | 1013.3 |
| 20260507193652 | 10 | 41 | 0.0 | 0.0 | 0.00 | 0.00 | 0.00 | 72 | 1013.3 |
| 20260507193202 | 10 | 41 | 0.0 | 0.0 | 0.00 | 0.00 | 0.00 | 71 | 1013.3 |
| 20260507192650 | 10 | 41 | 0.0 | 0.0 | 0.00 | 0.00 | 0.00 | 71 | 1013.3 |
| 20260507192201 | 10 | 360 | 0.0 | 0.0 | 0.00 | 0.00 | 0.00 | 71 | 1013.3 |
| 20260507191659 | 10 | 42 | 0.0 | 0.0 | 0.00 | 0.00 | 0.00 | 70 | 1013.3 |
| 20260507191145 | 10 | 42 | 0.0 | 0.0 | 0.00 | 0.00 | 0.00 | 70 | 1012.8 |
| 20260507190650 | 11 | 41 | 0.0 | 0.0 | 0.00 | 0.00 | 0.00 | 70 | 1012.8 |
| 20260507190203 | 11 | 42 | 0.0 | 0.0 | 0.00 | 0.00 | 0.00 | 69 | 1012.8 |
| 20260507185700 | 11 | 42 | 0.0 | 0.0 | 0.00 | 0.00 | 0.00 | 69 | 1012.6 |
| 20260507185140 | 11 | 42 | 0.0 | 0.0 | 0.00 | 0.00 | 0.00 | 69 | 1012.6 |
| 20260507184645 | 11 | 29 | 0.0 | 0.0 | 0.00 | 0.00 | 0.00 | 69 | 1012.6 |
| 20260507184154 | 11 | 25 | 0.0 | 0.0 | 0.00 | 0.00 | 0.00 | 69 | 1012.6 |
| 20260507183659 | 11 | 36 | 0.0 | 0.0 | 0.00 | 0.00 | 0.00 | 69 | 1012.6 |
| 20260507183147 | 11 | 26 | 0.0 | 0.0 | 0.00 | 0.00 | 0.00 | 69 | 1012.6 |
| 20260507182649 | 11 | 360 | 0.0 | 0.0 | 0.00 | 0.00 | 0.00 | 69 | 1012.1 |
| 20260507182153 | 11 | 348 | 1.6 | 0.0 | 0.00 | 0.00 | 0.00 | 69 | 1012.1 |
| 20260507181656 | 11 | 18 | 1.6 | 0.0 | 0.00 | 0.00 | 0.00 | 69 | 1012.1 |
| 20260507181150 | 12 | 346 | 0.0 | 0.0 | 0.00 | 0.00 | 0.00 | 69 | 1012.1 |
| 20260507180645 | 12 | 30 | 0.0 | 0.0 | 0.00 | 0.00 | 0.00 | 69 | 1012.1 |
| 20260507180158 | 12 | 5 | 0.0 | 0.0 | 0.00 | 0.00 | 0.00 | 69 | 1012.1 |
| 20260507175649 | 12 | 5 | 1.6 | 0.0 | 0.00 | 0.00 | 0.00 | 69 | 1012.1 |
| 20260507175155 | 12 | 336 | 1.6 | 0.0 | 0.00 | 0.00 | 0.00 | 69 | 1012.1 |
| 20260507174639 | 12 | 360 | 1.6 | 0.0 | 0.00 | 0.00 | 0.00 | 68 | 1012.1 |
| 20260507174144 | 12 | 336 | 1.6 | 0.0 | 0.00 | 0.00 | 0.00 | 67 | 1011.7 |
| 20260507173652 | 12 | 5 | 1.6 | 0.0 | 0.00 | 0.00 | 0.00 | 67 | 1011.7 |
| 20260507173200 | 12 | 326 | 1.6 | 0.0 | 0.00 | 0.00 | 0.00 | 66 | 1011.7 |
| 20260507172657 | 13 | 5 | 1.6 | 0.0 | 0.00 | 0.00 | 0.00 | 66 | 1011.9 |
| 20260507172201 | 13 | 360 | 0.0 | 0.0 | 0.00 | 0.00 | 0.00 | 65 | 1011.9 |
| 20260507171644 | 13 | 341 | 0.0 | 0.0 | 0.00 | 0.00 | 0.00 | 65 | 1011.9 |
| 20260507171201 | 13 | 336 | 0.0 | 0.0 | 0.00 | 0.00 | 0.00 | 64 | 1011.8 |
| 20260507170647 | 13 | 319 | 0.0 | 0.0 | 0.00 | 0.00 | 0.00 | 65 | 1011.8 |
| 20260507170148 | 13 | 336 | 0.0 | 0.0 | 0.00 | 0.00 | 0.00 | 64 | 1011.8 |
| 20260507165654 | 13 | 337 | 1.6 | 0.0 | 0.00 | 0.00 | 0.00 | 65 | 1011.5 |
| 20260507165142 | 13 | 355 | 1.6 | 0.0 | 0.00 | 0.00 | 0.00 | 63 | 1011.5 |
| 20260507164650 | 13 | 307 | 1.6 | 0.0 | 0.00 | 0.00 | 0.00 | 63 | 1011.5 |
| 20260507164156 | 13 | 46 | 1.6 | 0.0 | 0.00 | 0.00 | 0.00 | 63 | 1011.3 |
| 20260507163643 | 13 | 331 | 1.6 | 0.0 | 0.00 | 0.00 | 0.00 | 62 | 1011.3 |
| 20260507163145 | 14 | 322 | 1.6 | 0.0 | 0.00 | 0.00 | 0.00 | 61 | 1011.3 |
| 20260507162651 | 15 | 344 | 1.6 | 0.0 | 0.00 | 0.00 | 0.00 | 62 | 1011.3 |
| 20260507162200 | 15 | 360 | 1.6 | 0.0 | 0.00 | 0.00 | 0.00 | 62 | 1011.3 |
| 20260507161648 | 14 | 360 | 3.2 | 0.0 | 0.00 | 0.00 | 0.00 | 62 | 1011.3 |
| 20260507161154 | 14 | 337 | 1.6 | 0.0 | 0.00 | 0.00 | 0.00 | 63 | 1011.2 |
| 20260507160653 | 13 | 360 | 1.6 | 0.0 | 0.00 | 0.00 | 0.00 | 63 | 1011.2 |
| 20260507160159 | 14 | 333 | 1.6 | 0.0 | 0.00 | 0.00 | 0.00 | 61 | 1011.2 |
| 20260507155700 | 15 | 346 | 1.6 | 0.0 | 0.00 | 0.00 | 0.00 | 61 | 1011.4 |
| 20260507155143 | 15 | 346 | 4.8 | 0.0 | 0.00 | 0.00 | 0.00 | 59 | 1011.4 |
| 20260507154655 | 14 | 298 | 6.4 | 0.0 | 0.00 | 0.00 | 0.00 | 60 | 1011.4 |
| 20260507154200 | 13 | 290 | 4.8 | 0.0 | 0.00 | 0.00 | 0.00 | 61 | 1011.4 |
| 20260507153703 | 14 | 314 | 3.2 | 0.0 | 0.00 | 0.00 | 0.00 | 61 | 1011.4 |
| 20260507153145 | 15 | 302 | 3.2 | 0.0 | 0.00 | 0.00 | 0.00 | 61 | 1011.4 |
| 20260507152653 | 14 | 321 | 3.2 | 0.0 | 0.00 | 0.00 | 0.00 | 61 | 1011.3 |
| 20260507152156 | 14 | 336 | 3.2 | 0.0 | 0.00 | 0.00 | 0.00 | 61 | 1011.3 |
| 20260507151644 | 14 | 303 | 1.6 | 0.0 | 0.00 | 0.00 | 0.00 | 61 | 1011.3 |
| 20260507151149 | 14 | 325 | 3.2 | 0.0 | 0.00 | 0.00 | 0.00 | 62 | 1011.3 |
| 20260507150652 | 14 | 355 | 3.2 | 0.0 | 0.00 | 0.00 | 0.00 | 61 | 1011.3 |
| 20260507150203 | 14 | 360 | 3.2 | 0.0 | 0.00 | 0.00 | 0.00 | 61 | 1011.3 |
| 20260507145645 | 14 | 360 | 6.4 | 0.0 | 0.00 | 0.00 | 0.00 | 61 | 1011.1 |
| 20260507145153 | 15 | 279 | 8.0 | 0.0 | 0.00 | 0.00 | 0.00 | 60 | 1011.1 |
| 20260507144658 | 15 | 309 | 8.0 | 0.0 | 0.00 | 0.00 | 0.00 | 58 | 1011.1 |
| 20260507144156 | 16 | 281 | 4.8 | 0.0 | 0.00 | 0.00 | 0.00 | 60 | 1011.3 |
| 20260507143643 | 15 | 300 | 4.8 | 0.0 | 0.00 | 0.00 | 0.00 | 60 | 1011.3 |
| 20260507143152 | 15 | 315 | 8.0 | 0.0 | 0.00 | 0.00 | 0.00 | 61 | 1011.3 |
| 20260507142653 | 14 | 314 | 8.0 | 0.0 | 0.00 | 0.00 | 0.00 | 62 | 1011.3 |
| 20260507142203 | 14 | 298 | 6.4 | 0.0 | 0.00 | 0.00 | 0.00 | 62 | 1011.3 |
| 20260507141648 | 14 | 318 | 3.2 | 0.0 | 0.00 | 0.00 | 0.00 | 62 | 1011.3 |
| 20260507141153 | 15 | 320 | 4.8 | 0.0 | 0.00 | 0.00 | 0.00 | 61 | 1011.4 |
| 20260507140654 | 15 | 315 | 4.8 | 0.0 | 0.00 | 0.00 | 0.00 | 60 | 1011.4 |
| 20260507140146 | 15 | 273 | 6.4 | 0.0 | 0.00 | 0.00 | 0.00 | 63 | 1011.4 |
| 20260507135643 | 14 | 281 | 6.4 | 0.0 | 0.00 | 0.00 | 0.00 | 62 | 1011.5 |
| 20260507135203 | 13 | 294 | 4.8 | 0.0 | 0.00 | 0.00 | 0.00 | 63 | 1011.5 |
| 20260507134642 | 13 | 299 | 4.8 | 0.0 | 0.00 | 0.00 | 0.00 | 61 | 1011.5 |
| 20260507134153 | 14 | 360 | 4.8 | 0.0 | 0.00 | 0.00 | 0.00 | 62 | 1011.5 |
| 20260507133700 | 14 | 315 | 6.4 | 0.0 | 0.00 | 0.00 | 0.00 | 61 | 1011.5 |
| 20260507133148 | 14 | 273 | 4.8 | 0.0 | 0.00 | 0.00 | 0.00 | 62 | 1011.5 |
| 20260507132651 | 13 | 306 | 4.8 | 0.0 | 0.00 | 0.00 | 0.00 | 65 | 1011.7 |
| 20260507132159 | 13 | 294 | 6.4 | 0.0 | 0.00 | 0.00 | 0.00 | 63 | 1011.7 |
| 20260507131657 | 13 | 302 | 4.8 | 0.0 | 0.00 | 0.00 | 0.00 | 64 | 1011.7 |
| 20260507131203 | 13 | 331 | 4.8 | 0.0 | 0.00 | 0.00 | 0.00 | 62 | 1011.5 |
| 20260507130654 | 13 | 314 | 6.4 | 0.0 | 0.00 | 0.00 | 0.00 | 64 | 1011.5 |
| 20260507130157 | 13 | 321 | 8.0 | 0.0 | 0.00 | 0.00 | 0.00 | 65 | 1011.5 |
| 20260507125659 | 13 | 304 | 9.7 | 0.0 | 0.00 | 0.00 | 0.00 | 65 | 1011.5 |
| 20260507125201 | 13 | 323 | 8.0 | 0.0 | 0.00 | 0.00 | 0.00 | 65 | 1011.5 |
| 20260507124659 | 13 | 360 | 8.0 | 0.0 | 0.00 | 0.00 | 0.00 | 68 | 1011.5 |
| 20260507124202 | 13 | 360 | 9.7 | 0.0 | 0.00 | 0.00 | 0.00 | 68 | 1011.7 |
| 20260507123647 | 12 | 299 | 9.7 | 0.0 | 0.00 | 0.00 | 0.00 | 70 | 1011.7 |
| 20260507123150 | 12 | 323 | 9.7 | 0.0 | 0.00 | 0.00 | 0.00 | 69 | 1011.7 |
| 20260507122653 | 12 | 320 | 9.7 | 0.0 | 0.00 | 0.00 | 0.00 | 68 | 1011.5 |
| 20260507122156 | 13 | 360 | 6.4 | 0.0 | 0.00 | 0.00 | 0.00 | 66 | 1011.5 |
| 20260507121641 | 13 | 331 | 6.4 | 0.0 | 0.00 | 0.00 | 0.00 | 66 | 1011.5 |
| 20260507121203 | 13 | 303 | 8.0 | 0.0 | 0.00 | 0.00 | 0.00 | 66 | 1011.4 |
| 20260507120703 | 13 | 304 | 8.0 | 0.0 | 0.00 | 0.00 | 0.00 | 64 | 1011.4 |
| 20260507120147 | 13 | 269 | 8.0 | 0.0 | 0.00 | 0.00 | 0.00 | 64 | 1011.4 |
| 20260507115656 | 13 | 306 | 6.4 | 0.0 | 0.00 | 0.00 | 0.00 | 63 | 1011.5 |
| 20260507114642 | 12 | 326 | 8.0 | 0.0 | 0.00 | 0.00 | 0.00 | 69 | 1011.5 |
| 20260507114154 | 12 | 305 | 9.7 | 0.0 | 0.00 | 0.00 | 0.00 | 67 | 1011.5 |
| 20260507113659 | 12 | 360 | 9.7 | 0.0 | 0.00 | 0.00 | 0.00 | 67 | 1011.5 |
| 20260507113144 | 12 | 296 | 9.7 | 0.0 | 0.00 | 0.00 | 0.00 | 68 | 1011.5 |
| 20260507112648 | 12 | 271 | 9.7 | 0.0 | 0.00 | 0.00 | 0.00 | 67 | 1011.3 |
| 20260507112149 | 13 | 303 | 6.4 | 0.0 | 0.00 | 0.00 | 0.00 | 64 | 1011.3 |
| 20260507111653 | 13 | 221 | 6.4 | 0.0 | 0.00 | 0.00 | 0.00 | 68 | 1011.3 |
| 20260507111158 | 12 | 290 | 8.0 | 0.0 | 0.00 | 0.00 | 0.00 | 69 | 1011.5 |
| 20260507110656 | 12 | 360 | 8.0 | 0.0 | 0.00 | 0.00 | 0.00 | 69 | 1011.5 |
| 20260507110156 | 12 | 296 | 8.0 | 0.0 | 0.00 | 0.00 | 0.00 | 70 | 1011.5 |
| 20260507105655 | 12 | 322 | 4.8 | 0.0 | 0.00 | 0.00 | 0.00 | 71 | 1011.6 |
| 20260507105159 | 12 | 281 | 6.4 | 0.0 | 0.00 | 0.00 | 0.00 | 71 | 1011.6 |
| 20260507104702 | 12 | 360 | 9.7 | 0.0 | 0.00 | 0.00 | 0.00 | 69 | 1011.6 |
| 20260507104145 | 12 | 271 | 8.0 | 0.0 | 0.00 | 0.00 | 0.00 | 68 | 1011.6 |
| 20260507103653 | 12 | 302 | 6.4 | 0.0 | 0.00 | 0.00 | 0.00 | 67 | 1011.6 |
| 20260507103152 | 13 | 304 | 9.7 | 0.0 | 0.00 | 0.00 | 0.00 | 69 | 1011.6 |
| 20260507102652 | 12 | 275 | 11.3 | 0.0 | 0.00 | 0.00 | 0.00 | 70 | 1011.6 |
| 20260507102152 | 11 | 360 | 11.3 | 0.0 | 0.00 | 0.00 | 0.00 | 70 | 1011.6 |
| 20260507101658 | 12 | 294 | 12.9 | 0.0 | 0.00 | 0.00 | 0.00 | 69 | 1011.6 |
| 20260507101143 | 12 | 360 | 9.7 | 0.0 | 0.00 | 0.00 | 0.00 | 67 | 1011.4 |
| 20260507100652 | 12 | 318 | 8.0 | 0.0 | 0.00 | 0.00 | 0.00 | 69 | 1011.4 |
| 20260507100200 | 12 | 227 | 6.4 | 0.0 | 0.00 | 0.00 | 0.00 | 70 | 1011.4 |
| 20260507095655 | 12 | 360 | 9.7 | 0.0 | 0.00 | 0.00 | 0.00 | 72 | 1011.6 |
| 20260507095157 | 11 | 360 | 9.7 | 0.0 | 0.00 | 0.00 | 0.00 | 76 | 1011.6 |
| 20260507094657 | 11 | 287 | 9.7 | 0.0 | 0.00 | 0.00 | 0.00 | 73 | 1011.6 |
| 20260507094202 | 11 | 271 | 11.3 | 0.0 | 0.00 | 0.00 | 0.00 | 73 | 1011.8 |
| 20260507093647 | 11 | 288 | 6.4 | 0.0 | 0.00 | 0.00 | 0.00 | 76 | 1011.8 |
| 20260507093149 | 10 | 203 | 6.4 | 0.0 | 0.00 | 0.00 | 0.00 | 75 | 1011.8 |
| 20260507092657 | 10 | 275 | 6.4 | 0.0 | 0.00 | 0.00 | 0.00 | 75 | 1011.7 |
| 20260507092156 | 10 | 360 | 8.0 | 0.0 | 0.00 | 0.00 | 0.00 | 76 | 1011.7 |
| 20260507091659 | 10 | 273 | 6.4 | 0.0 | 0.00 | 0.00 | 0.00 | 76 | 1011.7 |
| 20260507091149 | 10 | 360 | 6.4 | 0.0 | 0.00 | 0.00 | 0.00 | 77 | 1011.7 |
| 20260507090701 | 10 | 242 | 6.4 | 0.0 | 0.00 | 0.00 | 0.00 | 77 | 1011.7 |
| 20260507090203 | 10 | 277 | 4.8 | 0.0 | 0.00 | 0.00 | 0.00 | 76 | 1011.7 |
| 20260507085644 | 10 | 291 | 6.4 | 0.0 | 0.00 | 0.00 | 0.00 | 77 | 1011.5 |
| 20260507085158 | 10 | 192 | 6.4 | 0.0 | 0.00 | 0.00 | 0.00 | 77 | 1011.5 |
| 20260507084646 | 10 | 255 | 3.2 | 0.0 | 0.00 | 0.00 | 0.00 | 76 | 1011.5 |
| 20260507084147 | 10 | 184 | 3.2 | 0.0 | 0.00 | 0.00 | 0.00 | 76 | 1011.4 |
| 20260507083654 | 10 | 167 | 6.4 | 0.0 | 0.00 | 0.00 | 0.00 | 76 | 1011.4 |
| 20260507083146 | 10 | 279 | 6.4 | 0.0 | 0.00 | 0.00 | 0.00 | 73 | 1011.4 |
| 20260507082657 | 10 | 275 | 6.4 | 0.0 | 0.00 | 0.00 | 0.00 | 73 | 1011.2 |
| 20260507082148 | 10 | 312 | 6.4 | 0.0 | 0.00 | 0.00 | 0.00 | 76 | 1011.2 |
| 20260507081655 | 10 | 232 | 6.4 | 0.0 | 0.00 | 0.00 | 0.00 | 73 | 1011.2 |
| 20260507081144 | 10 | 281 | 8.0 | 0.0 | 0.00 | 0.00 | 0.00 | 72 | 1011.3 |
| 20260507080652 | 10 | 213 | 9.7 | 0.0 | 0.00 | 0.00 | 0.00 | 73 | 1011.3 |
| 20260507080200 | 10 | 276 | 11.3 | 0.0 | 0.00 | 0.00 | 0.00 | 72 | 1011.3 |
| 20260507075650 | 10 | 360 | 11.3 | 0.0 | 0.00 | 0.00 | 0.00 | 72 | 1011.1 |
| 20260507075158 | 10 | 286 | 12.9 | 0.0 | 0.00 | 0.00 | 0.00 | 71 | 1011.1 |
| 20260507074646 | 10 | 360 | 9.7 | 0.0 | 0.00 | 0.00 | 0.00 | 71 | 1011.1 |
| 20260507074202 | 10 | 259 | 6.4 | 0.0 | 0.00 | 0.00 | 0.00 | 71 | 1010.8 |
| 20260507073646 | 10 | 245 | 8.0 | 0.0 | 0.00 | 0.00 | 0.00 | 72 | 1010.8 |
| 20260507073152 | 10 | 360 | 9.7 | 0.0 | 0.00 | 0.00 | 0.00 | 72 | 1010.8 |
| 20260507072645 | 10 | 219 | 8.0 | 0.0 | 0.00 | 0.00 | 0.00 | 72 | 1010.7 |
| 20260507072156 | 10 | 152 | 6.4 | 0.0 | 0.00 | 0.00 | 0.00 | 73 | 1010.7 |
| 20260507071650 | 10 | 360 | 4.8 | 0.0 | 0.00 | 0.00 | 0.00 | 73 | 1010.7 |
| 20260507071142 | 10 | 288 | 4.8 | 0.0 | 0.00 | 0.00 | 0.00 | 74 | 1010.6 |
| 20260507070645 | 10 | 199 | 3.2 | 0.0 | 0.00 | 0.00 | 0.00 | 73 | 1010.6 |
| 20260507070153 | 10 | 245 | 4.8 | 0.0 | 0.00 | 0.00 | 0.00 | 74 | 1010.6 |
| 20260507065658 | 10 | 281 | 4.8 | 0.0 | 0.00 | 0.00 | 0.00 | 74 | 1010.5 |
| 20260507065203 | 10 | 192 | 6.4 | 0.0 | 0.00 | 0.00 | 0.00 | 74 | 1010.5 |
| 20260507064651 | 10 | 252 | 6.4 | 0.0 | 0.00 | 0.00 | 0.00 | 75 | 1010.5 |
| 20260507064153 | 10 | 295 | 4.8 | 0.0 | 0.00 | 0.00 | 0.00 | 76 | 1010.5 |
| 20260507063658 | 10 | 360 | 6.4 | 0.0 | 0.00 | 0.00 | 0.00 | 75 | 1010.5 |
| 20260507063146 | 10 | 360 | 6.4 | 0.0 | 0.00 | 0.00 | 0.00 | 76 | 1010.5 |
| 20260507062657 | 9 | 173 | 4.8 | 0.0 | 0.00 | 0.00 | 0.00 | 77 | 1010.2 |
| 20260507062145 | 9 | 360 | 4.8 | 0.0 | 0.00 | 0.00 | 0.00 | 77 | 1010.2 |
| 20260507061649 | 9 | 360 | 4.8 | 0.0 | 0.00 | 0.00 | 0.00 | 76 | 1010.2 |
| 20260507061200 | 9 | 270 | 3.2 | 0.0 | 0.00 | 0.00 | 0.00 | 76 | 1010.1 |
| 20260507060700 | 9 | 199 | 4.8 | 0.0 | 0.00 | 0.00 | 0.00 | 76 | 1010.1 |
| 20260507060201 | 9 | 236 | 3.2 | 0.0 | 0.00 | 0.00 | 0.00 | 75 | 1010.1 |
| 20260507055645 | 9 | 288 | 1.6 | 0.0 | 0.00 | 0.00 | 0.00 | 76 | 1010.0 |
| 20260507055147 | 9 | 165 | 1.6 | 0.0 | 0.00 | 0.00 | 0.00 | 76 | 1010.0 |
| 20260507054658 | 9 | 291 | 3.2 | 0.0 | 0.00 | 0.00 | 0.00 | 75 | 1010.0 |
| 20260507054158 | 9 | 286 | 3.2 | 0.0 | 0.00 | 0.00 | 0.00 | 76 | 1009.8 |
| 20260507053700 | 9 | 196 | 3.2 | 0.0 | 0.00 | 0.00 | 0.00 | 76 | 1009.8 |
| 20260507053144 | 9 | 280 | 3.2 | 0.0 | 0.00 | 0.00 | 0.00 | 76 | 1009.8 |
| 20260507052648 | 9 | 153 | 3.2 | 0.0 | 0.00 | 0.00 | 0.00 | 75 | 1009.5 |
| 20260507052150 | 9 | 360 | 1.6 | 0.0 | 0.00 | 0.00 | 0.00 | 75 | 1009.5 |
| 20260507051642 | 9 | 249 | 1.6 | 0.0 | 0.00 | 0.00 | 0.00 | 75 | 1009.5 |
| 20260507051152 | 9 | 360 | 1.6 | 0.0 | 0.00 | 0.00 | 0.00 | 76 | 1009.5 |
| 20260507050700 | 8 | 184 | 3.2 | 0.0 | 0.00 | 0.00 | 0.00 | 76 | 1009.5 |
| 20260507050141 | 8 | 277 | 3.2 | 0.0 | 0.00 | 0.00 | 0.00 | 77 | 1009.5 |
| 20260507045654 | 8 | 176 | 3.2 | 0.0 | 0.00 | 0.00 | 0.00 | 78 | 1009.4 |
| 20260507045159 | 8 | 254 | 1.6 | 0.0 | 0.00 | 0.00 | 0.00 | 79 | 1009.4 |
| 20260507044655 | 8 | 153 | 1.6 | 0.0 | 0.00 | 0.00 | 0.00 | 79 | 1009.4 |
| 20260507044201 | 8 | 360 | 1.6 | 0.0 | 0.00 | 0.00 | 0.00 | 79 | 1009.2 |
| 20260507043654 | 8 | 192 | 1.6 | 0.0 | 0.00 | 0.00 | 0.00 | 79 | 1009.2 |
| 20260507043146 | 8 | 194 | 1.6 | 0.0 | 0.00 | 0.00 | 0.00 | 79 | 1009.2 |
| 20260507042657 | 8 | 360 | 1.6 | 0.0 | 0.00 | 0.00 | 0.00 | 79 | 1008.9 |
| 20260507042151 | 8 | 186 | 0.0 | 0.0 | 0.00 | 0.00 | 0.00 | 79 | 1008.9 |
| 20260507041653 | 8 | 360 | 0.0 | 0.0 | 0.00 | 0.00 | 0.00 | 79 | 1008.9 |
| 20260507041201 | 8 | 193 | 0.0 | 0.0 | 0.00 | 0.00 | 0.00 | 79 | 1008.9 |
| 20260507040648 | 8 | 246 | 0.0 | 0.0 | 0.00 | 0.00 | 0.00 | 79 | 1008.9 |
| 20260507040152 | 8 | 242 | 0.0 | 0.0 | 0.00 | 0.00 | 0.00 | 79 | 1008.9 |
| 20260507035659 | 8 | 200 | 0.0 | 0.0 | 0.00 | 0.00 | 0.00 | 79 | 1008.8 |
| 20260507035201 | 8 | 267 | 0.0 | 0.0 | 0.00 | 0.00 | 0.00 | 79 | 1008.8 |
| 20260507034651 | 8 | 194 | 0.0 | 0.0 | 0.00 | 0.00 | 0.00 | 79 | 1008.8 |
| 20260507034201 | 8 | 194 | 0.0 | 0.0 | 0.00 | 0.00 | 0.00 | 79 | 1008.7 |
| 20260507033650 | 8 | 253 | 0.0 | 0.0 | 0.00 | 0.00 | 0.00 | 79 | 1008.7 |
| 20260507033201 | 8 | 253 | 0.0 | 0.0 | 0.00 | 0.00 | 0.00 | 79 | 1008.7 |
| 20260507032646 | 8 | 250 | 0.0 | 0.0 | 0.00 | 0.00 | 0.00 | 79 | 1008.5 |
| 20260507032151 | 8 | 182 | 0.0 | 0.0 | 0.00 | 0.00 | 0.00 | 79 | 1008.5 |
| 20260507031653 | 8 | 205 | 0.0 | 0.0 | 0.00 | 0.00 | 0.00 | 80 | 1008.5 |
| 20260507031158 | 8 | 246 | 1.6 | 0.0 | 0.00 | 0.00 | 0.00 | 80 | 1007.8 |
| 20260507030701 | 8 | 209 | 1.6 | 0.0 | 0.00 | 0.00 | 0.00 | 80 | 1007.8 |
| 20260507030154 | 7 | 203 | 0.0 | 0.0 | 0.00 | 0.00 | 0.00 | 80 | 1007.8 |
| 20260507025701 | 7 | 259 | 1.6 | 0.0 | 0.00 | 0.00 | 0.00 | 80 | 1007.9 |
| 20260507025200 | 7 | 225 | 1.6 | 0.0 | 0.00 | 0.00 | 0.00 | 81 | 1007.9 |
| 20260507024702 | 7 | 360 | 1.6 | 0.0 | 0.00 | 0.00 | 0.00 | 81 | 1007.9 |
| 20260507024149 | 7 | 223 | 0.0 | 0.0 | 0.00 | 0.00 | 0.00 | 81 | 1007.7 |
| 20260507023652 | 7 | 129 | 1.6 | 0.0 | 0.00 | 0.00 | 0.00 | 81 | 1007.7 |
| 20260507023147 | 7 | 360 | 0.0 | 0.0 | 0.00 | 0.00 | 0.00 | 81 | 1007.7 |
| 20260507022655 | 7 | 166 | 0.0 | 0.0 | 0.00 | 0.00 | 0.00 | 81 | 1007.9 |
| 20260507022200 | 7 | 263 | 0.0 | 0.0 | 0.00 | 0.00 | 0.00 | 80 | 1007.9 |
| 20260507021647 | 7 | 236 | 0.0 | 0.0 | 0.00 | 0.00 | 0.00 | 80 | 1007.9 |
| 20260507021146 | 7 | 217 | 0.0 | 0.0 | 0.00 | 0.00 | 0.00 | 80 | 1008.2 |
| 20260507020653 | 7 | 218 | 0.0 | 0.0 | 0.00 | 0.00 | 0.00 | 79 | 1008.2 |
| 20260507020146 | 7 | 218 | 0.0 | 0.0 | 0.00 | 0.00 | 0.00 | 79 | 1008.2 |
| 20260507015659 | 7 | 218 | 0.0 | 0.0 | 0.00 | 0.00 | 0.00 | 79 | 1008.1 |
| 20260507015153 | 7 | 219 | 0.0 | 0.0 | 0.00 | 0.00 | 0.00 | 79 | 1008.1 |
| 20260507014644 | 7 | 219 | 0.0 | 0.0 | 0.00 | 0.00 | 0.00 | 79 | 1008.1 |
| 20260507014152 | 7 | 223 | 0.0 | 0.0 | 0.00 | 0.00 | 0.00 | 78 | 1008.1 |
| 20260507013653 | 7 | 221 | 0.0 | 0.0 | 0.00 | 0.00 | 0.00 | 78 | 1008.1 |
| 20260507013154 | 7 | 219 | 0.0 | 0.0 | 0.00 | 0.00 | 0.00 | 77 | 1008.1 |
| 20260507012653 | 7 | 219 | 0.0 | 0.0 | 0.00 | 0.00 | 0.00 | 77 | 1007.9 |
| 20260507012153 | 7 | 218 | 0.0 | 0.0 | 0.00 | 0.00 | 0.00 | 77 | 1007.9 |
| 20260507011700 | 7 | 219 | 0.0 | 0.0 | 0.00 | 0.00 | 0.00 | 77 | 1007.9 |
| 20260507011147 | 7 | 218 | 0.0 | 0.0 | 0.00 | 0.00 | 0.00 | 78 | 1008.0 |
| 20260507010653 | 7 | 360 | 0.0 | 0.0 | 0.00 | 0.00 | 0.00 | 78 | 1008.0 |
| 20260507010201 | 7 | 217 | 0.0 | 0.0 | 0.00 | 0.00 | 0.00 | 78 | 1008.0 |
| 20260507005650 | 7 | 217 | 0.0 | 0.0 | 0.00 | 0.00 | 0.00 | 77 | 1007.9 |
| 20260507005146 | 7 | 211 | 0.0 | 0.0 | 0.00 | 0.00 | 0.00 | 77 | 1007.9 |
| 20260507004647 | 8 | 215 | 0.0 | 0.0 | 0.00 | 0.00 | 0.00 | 77 | 1007.9 |
| 20260507004152 | 8 | 192 | 0.0 | 0.0 | 0.00 | 0.00 | 0.00 | 76 | 1007.9 |
| 20260507003657 | 8 | 191 | 0.0 | 0.0 | 0.00 | 0.00 | 0.00 | 76 | 1007.9 |
| 20260507003159 | 8 | 193 | 0.0 | 0.0 | 0.00 | 0.00 | 0.00 | 76 | 1007.9 |
| 20260507002645 | 8 | 193 | 0.0 | 0.0 | 0.00 | 0.00 | 0.00 | 76 | 1007.8 |
| 20260507002153 | 8 | 360 | 0.0 | 0.0 | 0.00 | 0.00 | 0.00 | 76 | 1007.8 |
| 20260507001648 | 8 | 195 | 0.0 | 0.0 | 0.00 | 0.00 | 0.00 | 76 | 1007.8 |
| 20260507001156 | 8 | 157 | 0.0 | 0.0 | 0.00 | 0.00 | 0.00 | 76 | 1007.7 |
| 20260507000702 | 8 | 157 | 0.0 | 0.0 | 0.00 | 0.00 | 0.00 | 76 | 1007.7 |
| 20260507000204 | 8 | 157 | 0.0 | 0.0 | 0.00 | 0.00 | 0.00 | 76 | 1007.7 |
| 20260506235655 | 8 | 157 | 0.0 | 0.0 | 0.00 | 0.00 | 0.00 | 76 | 1007.7 |
| 20260506235200 | 8 | 163 | 0.0 | 0.0 | 0.00 | 0.00 | 0.00 | 76 | 1007.7 |
| 20260506234645 | 8 | 190 | 0.0 | 0.0 | 0.00 | 0.00 | 0.00 | 77 | 1007.7 |
| 20260506234159 | 8 | 222 | 0.0 | 0.0 | 0.00 | 0.00 | 0.00 | 77 | 1007.7 |
| 20260506233705 | 8 | 226 | 1.6 | 0.0 | 0.00 | 0.00 | 0.00 | 77 | 1007.7 |
| 20260506233154 | 8 | 215 | 1.6 | 0.0 | 0.00 | 0.00 | 0.00 | 76 | 1007.7 |
| 20260506232649 | 8 | 158 | 0.0 | 0.0 | 0.00 | 0.00 | 0.00 | 77 | 1007.6 |
| 20260506232154 | 8 | 207 | 0.0 | 0.0 | 0.00 | 0.00 | 0.00 | 77 | 1007.6 |
| 20260506231701 | 8 | 184 | 1.6 | 0.0 | 0.00 | 0.00 | 0.00 | 77 | 1007.6 |
| 20260506230704 | 8 | 360 | 1.6 | 0.0 | 0.00 | 0.00 | 0.00 | 77 | 1007.3 |
| 20260506230150 | 8 | 269 | 0.0 | 0.0 | 0.00 | 0.00 | 0.00 | 77 | 1007.3 |
| 20260506225654 | 8 | 218 | 0.0 | 0.0 | 0.00 | 0.00 | 0.00 | 76 | 1007.3 |
| 20260506225203 | 8 | 217 | 0.0 | 0.0 | 0.00 | 0.00 | 0.00 | 76 | 1007.3 |
| 20260506224647 | 8 | 226 | 0.0 | 0.0 | 0.00 | 0.00 | 0.00 | 76 | 1007.3 |
| 20260506224154 | 8 | 230 | 0.0 | 0.0 | 0.00 | 0.00 | 0.00 | 76 | 1008.1 |
| 20260506223700 | 8 | 318 | 1.6 | 0.0 | 0.00 | 0.00 | 0.00 | 76 | 1008.1 |
| 20260506223201 | 8 | 174 | 1.6 | 0.0 | 0.00 | 0.00 | 0.00 | 76 | 1008.1 |
| 20260506222700 | 9 | 157 | 0.0 | 0.0 | 0.00 | 0.00 | 0.00 | 76 | 1008.1 |
| 20260506222148 | 9 | 360 | 1.6 | 0.0 | 0.00 | 0.00 | 0.00 | 76 | 1008.1 |
| 20260506221657 | 9 | 273 | 1.6 | 0.0 | 0.00 | 0.00 | 0.00 | 76 | 1008.1 |
| 20260506221149 | 9 | 155 | 1.6 | 0.0 | 0.00 | 0.00 | 0.00 | 76 | 1007.2 |
| 20260506220655 | 9 | 173 | 1.6 | 0.0 | 0.00 | 0.00 | 0.00 | 76 | 1007.2 |
| 20260506220159 | 9 | 246 | 1.6 | 0.0 | 0.00 | 0.00 | 0.00 | 76 | 1007.2 |
| 20260506215653 | 9 | 225 | 1.6 | 0.0 | 0.00 | 0.00 | 0.05 | 76 | 1007.1 |
| 20260506215201 | 9 | 274 | 1.6 | 0.0 | 0.00 | 0.00 | 0.05 | 76 | 1007.1 |
| 20260506214703 | 9 | 225 | 1.6 | 0.0 | 0.00 | 0.00 | 0.05 | 76 | 1007.1 |
| 20260506214148 | 9 | 360 | 0.0 | 0.0 | 0.00 | 0.00 | 0.05 | 76 | 1007.1 |
| 20260506213656 | 9 | 191 | 0.0 | 0.0 | 0.00 | 0.00 | 0.05 | 76 | 1007.1 |
| 20260506213204 | 9 | 209 | 0.0 | 0.0 | 0.00 | 0.00 | 0.05 | 76 | 1007.1 |
| 20260506212647 | 9 | 360 | 1.6 | 0.0 | 0.00 | 0.00 | 0.05 | 76 | 1007.1 |
| 20260506212150 | 9 | 198 | 1.6 | 0.0 | 0.00 | 0.00 | 0.05 | 76 | 1007.1 |
| 20260506211650 | 9 | 269 | 1.6 | 0.0 | 0.00 | 0.00 | 0.05 | 76 | 1007.1 |
| 20260506211156 | 9 | 259 | 1.6 | 0.0 | 0.00 | 0.00 | 0.05 | 76 | 1007.2 |